Location: Bemmer
(51.5498°N, 5.6249°E)
Time: 01:05:55
(UTC+00:00)

SL-4 R/B - Pass Details

Date: 03 March 2021
Orbit: 428 x 663 km, 51.6° (Epoch: 13 April)

Event Time Altitude Azimuth Distance (km) Brightness Sun altitude
Rises 19:50:13 0° 284° (WNW) 2,459 6.8 -23.6°
Reaches altitude 10° 19:52:27 10° 277° (W) 1,561 5.3 -23.9°
Enters shadow 19:54:49 32° 245° (WSW) 770 3.1 -24.2°
